This demonstration page uses our WeatherBlox Daily Observations layout. Learn more.

Left ArrowRight Arrow

39.12711, -84.51439

Hourly Observations for January 11, 2022

Temp ( °F °C ) Dew Point ( °F °C ) Humidity (%) Winds ( mph kmh ) Pressure ( in mb ) Visibility ( mi km ) Precip ( " mm )
12:53 am 00:53 Clear 20 -6.7 8 -13.3 60 60 NNW 9 15 30.60 1036 10 16 0.00 0.00
1:53 am 01:53 Clear 19 -7.2 7 -13.9 59 59 NNW 5 7 30.60 1036 10 16 0.00 0.00
2:53 am 02:53 Clear 17 -8.3 8 -13.3 68 68 N 8 13 30.61 1037 10 16 0.00 0.00
3:53 am 03:53 Clear 16 -8.9 6 -14.4 65 65 N 6 9 30.61 1037 10 16 0.00 0.00
4:53 am 04:53 Clear 14 -10 5 -15 67 67 N 5 7 30.62 1037 10 16 0.00 0.00
5:53 am 05:53 Clear 14 -10 8 -13.3 77 77 NE 3 6 30.64 1038 10 16 0.00 0.00
6:53 am 06:53 Clear 14 -10 5 -15 67 67 Calm 30.64 1038 10 16 0.00 0.00
7:53 am 07:53 Clear 13 -10.6 6 -14.4 74 74 E 3 6 30.63 1037 10 16 0.00 0.00
8:53 am 08:53 Sunny 15 -9.4 9 -12.8 77 77 NE 7 11 30.64 1038 10 16 0.00 0.00
9:53 am 09:53 Sunny 19 -7.2 11 -11.7 71 71 Calm 30.64 1038 10 16 0.00 0.00
10:53 am 10:53 Sunny 21 -6.1 10 -12.2 62 62 SW 5 7 30.63 1037 10 16 0.00 0.00
11:53 am 11:53 Sunny 24 -4.4 11 -11.7 57 57 SSW 8 13 30.60 1036 10 16 0.00 0.00
12:53 pm 12:53 Sunny 27 -2.8 8 -13.3 45 45 SSW 9 15 30.57 1035 10 16 0.00 0.00
1:53 pm 13:53 Sunny 29 -1.7 11 -11.7 47 47 SSW 5 7 30.53 1034 10 16 0.00 0.00
2:53 pm 14:53 Sunny 32 0 11 -11.7 41 41 S 8 13 30.50 1033 10 16 0.00 0.00
3:53 pm 15:53 Sunny 33 0.6 11 -11.7 40 40 S 7 11 30.48 1032 10 16 0.00 0.00
4:53 pm 16:53 Sunny 33 0.6 11 -11.7 40 40 S 10 17 30.46 1031 10 16 0.00 0.00
5:53 pm 17:53 Clear 29 -1.7 12 -11.1 49 49 S 6 9 30.45 1031 10 16 0.00 0.00
6:53 pm 18:53 Clear 28 -2.2 12 -11.1 51 51 S 8 13 30.42 1030 10 16 0.00 0.00
7:53 pm 19:53 Clear 30 -1.1 13 -10.6 49 49 SSW 8 13 30.39 1029 10 16 0.00 0.00
8:53 pm 20:53 Clear 30 -1.1 13 -10.6 49 49 S 13 20 30.34 1027 10 16 0.00 0.00
9:53 pm 21:53 Clear 31 -0.6 11 -11.7 43 43 SSW 13 20 30.29 1026 10 16 0.00 0.00
10:53 pm 22:53 Clear 28 -2.2 15 -9.4 58 58 SSW 7 11 30.32 1027 10 16 0.00 0.00
11:53 pm 23:53 Clear 28 -2.2 17 -8.3 63 63 SSW 9 15 30.29 1026 10 16 0.00 0.00

Powered by AerisWeather